EW3411 Weather Reports


time (UTC)temp
C
wind
direction
speed
KPH
gust
KPH
rain 1hr
cm
rain 24hr
cm
rain mn
cm
humidity
%
barometer
mb
20260504212519 8 351 0.0 6.4 0.00 0.18 0.18 89 1005.0
20260504212019 8 351 0.0 8.0 0.00 0.18 0.18 89 1005.0
20260504211556 8 334 4.8 8.0 0.00 0.18 0.18 89 1005.0
20260504211015 7 295 1.6 8.0 0.00 0.18 0.18 90 1004.9
20260504210514 7 307 1.6 6.4 0.00 0.18 0.18 90 1004.8
20260504210110 7 135 1.6 6.4 0.00 0.18 0.18 90 1004.9
20260504205517 7 339 1.6 8.0 0.00 0.18 0.18 90 1004.8
20260504205015 7 339 1.6 8.0 0.00 0.18 0.18 90 1004.7
20260504204630 7 345 3.2 8.0 0.00 0.18 0.18 91 1004.9
20260504204019 7 345 3.2 8.0 0.00 0.18 0.18 91 1004.9
20260504203518 7 352 3.2 9.7 0.00 0.18 0.18 91 1004.9
20260504203136 7 332 6.4 14.5 0.00 0.18 0.18 92 1004.9
20260504202517 7 357 4.8 14.5 0.00 0.18 0.18 92 1004.8
20260504202016 7 343 6.4 11.3 0.00 0.18 0.18 92 1004.9
20260504201557 7 351 6.4 11.3 0.00 0.18 0.18 91 1004.8
20260504201015 7 315 4.8 9.7 0.00 0.18 0.18 91 1004.8
20260504200518 7 295 3.2 9.7 0.00 0.18 0.18 91 1004.7
20260504200111 7 347 3.2 9.7 0.00 0.18 0.18 91 1004.7
20260504195518 7 274 1.6 9.7 0.00 0.23 0.18 91 1004.5
20260504195017 7 299 4.8 12.9 0.00 0.23 0.18 92 1004.6
20260504194610 7 339 4.8 12.9 0.00 0.23 0.18 91 1004.7
20260504194018 7 309 8.0 14.5 0.00 0.23 0.18 91 1004.7
20260504193519 7 331 4.8 9.7 0.00 0.23 0.18 91 1004.7
20260504193109 7 309 3.2 9.7 0.00 0.23 0.18 90 1004.6
20260504192520 7 295 4.8 12.9 0.00 0.23 0.18 90 1004.6
20260504192018 7 295 3.2 14.5 0.00 0.23 0.18 90 1004.7
20260504191614 7 295 6.4 14.5 0.00 0.23 0.18 90 1004.6
20260504191019 7 295 4.8 12.9 0.00 0.23 0.18 89 1004.5
20260504190517 7 313 3.2 8.0 0.00 0.23 0.18 89 1004.4
20260504190118 7 310 3.2 8.0 0.00 0.23 0.18 89 1004.5
20260504185517 7 282 3.2 8.0 0.00 0.23 0.18 89 1004.4
20260504185021 7 328 3.2 8.0 0.00 0.23 0.18 89 1004.4
20260504184614 7 326 4.8 9.7 0.00 0.23 0.18 89 1004.5
20260504184024 7 295 3.2 12.9 0.00 0.23 0.18 88 1004.5
20260504183517 7 307 6.4 12.9 0.00 0.23 0.18 88 1004.5
20260504183110 7 328 3.2 8.0 0.00 0.23 0.18 89 1004.4
20260504182519 7 304 3.2 8.0 0.00 0.23 0.18 88 1004.4
20260504182017 7 261 3.2 9.7 0.00 0.23 0.18 88 1004.5
20260504181610 7 259 4.8 17.7 0.00 0.23 0.18 87 1004.6
20260504181017 7 295 8.0 19.3 0.03 0.23 0.18 86 1004.5
20260504180518 7 312 9.7 19.3 0.03 0.23 0.18 88 1004.6
20260504180128 7 295 3.2 12.9 0.05 0.23 0.18 87 1004.5
20260504175518 7 312 3.2 9.7 0.05 0.28 0.18 88 1004.6
20260504175017 7 309 3.2 9.7 0.10 0.28 0.18 89 1004.8
20260504174602 7 333 4.8 9.7 0.15 0.28 0.18 87 1004.9
20260504174012 7 295 3.2 8.0 0.15 0.28 0.18 87 1005.0
20260504173518 7 239 4.8 12.9 0.15 0.28 0.18 88 1005.0
20260504173025 7 327 8.0 12.9 0.18 0.28 0.18 87 1004.9
20260504172515 7 258 3.2 16.1 0.18 0.28 0.18 88 1004.8
20260504172018 7 324 6.4 16.1 0.18 0.28 0.18 88 1004.9
20260504171612 7 338 8.0 16.1 0.18 0.28 0.18 87 1004.9
20260504171024 7 243 6.4 16.1 0.15 0.23 0.15 87 1004.8
20260504170519 7 318 4.8 16.1 0.15 0.23 0.15 87 1005.0
20260504160112 11 197 11.3 22.5 0.00 0.18 0.00 54 1003.4
20260504151019 11 206 4.8 12.9 0.00 0.23 0.00 59 1003.8
20260504150521 11 257 3.2 12.9 0.00 0.23 0.00 57 1003.8
20260504150113 10 199 4.8 12.9 0.00 0.23 0.00 57 1004.0
20260504141020 9 318 3.2 20.9 0.00 0.41 0.00 58 1004.8
20260504140521 9 254 4.8 20.9 0.00 0.41 0.00 56 1004.7
20260504140110 8 220 8.0 16.1 0.00 0.41 0.00 58 1004.8
20260504130517 7 322 11.3 25.7 0.00 0.61 0.00 58 1005.7
20260504110511 3 345 3.2 11.3 0.00 1.12 0.00 68 1006.1
20260504100511 2 326 3.2 8.0 0.00 1.30 0.00 75 1005.7
20260504082006 3 295 14.5 20.9 0.00 1.60 0.00 73 1004.8
20260504081539 3 304 14.5 27.4 0.00 1.60 0.00 73 1004.8
20260504081011 3 321 17.7 27.4 0.00 1.60 0.00 74 1004.8
20260504080512 3 303 16.1 24.1 0.00 1.60 0.00 75 1004.8
20260504050518 3 303 9.7 14.5 0.00 1.65 0.00 81 1004.1
20260504045514 2 337 3.2 8.0 0.00 1.68 0.00 87 1004.2
20260504045011 2 234 0.0 3.2 0.00 1.68 0.00 86 1004.0
20260504044542 2 318 0.0 1.6 0.00 1.68 0.00 83 1004.0
20260504044013 3 318 0.0 1.6 0.00 1.68 0.00 84 1003.9
20260504043515 3 318 0.0 4.8 0.00 1.68 0.00 81 1004.0
20260504043048 3 318 3.2 6.4 0.00 1.68 0.00 79 1004.0
20260504042516 4 316 1.6 8.0 0.00 1.68 0.00 79 1004.1
20260504042018 4 321 4.8 9.7 0.00 1.68 0.00 77 1004.2
20260504041548 4 309 6.4 12.9 0.00 1.68 0.00 75 1004.2
20260504041019 4 299 8.0 12.9 0.00 1.68 0.00 75 1004.2
20260504040518 4 302 3.2 6.4 0.00 1.68 0.00 77 1004.2
20260504040025 5 258 1.6 9.7 0.00 1.68 0.00 78 1003.9
20260504035517 5 317 4.8 12.9 0.00 1.68 1.68 73 1004.0
20260504035016 5 324 6.4 12.9 0.00 1.68 1.68 72 1004.0
20260504034553 5 318 6.4 14.5 0.00 1.68 1.68 72 1003.9
20260504034016 5 321 8.0 14.5 0.00 1.68 1.68 71 1003.9
20260504033509 5 307 9.7 16.1 0.00 1.68 1.68 69 1003.8
20260504033046 5 331 8.0 19.3 0.00 1.68 1.68 69 1003.8
20260504032518 5 299 11.3 19.3 0.00 1.68 1.68 67 1003.8
20260504032018 5 295 12.9 25.7 0.00 1.68 1.68 67 1003.7
20260504031528 5 313 11.3 25.7 0.00 1.68 1.68 67 1003.6
20260504031010 6 305 14.5 25.7 0.00 1.68 1.68 67 1003.6
20260504030516 6 307 16.1 25.7 0.00 1.68 1.68 67 1003.5
20260504030051 6 326 16.1 24.1 0.00 1.68 1.68 69 1003.6
20260504025517 6 323 14.5 22.5 0.00 1.73 1.68 68 1003.7
20260504025016 6 331 11.3 17.7 0.00 1.73 1.68 69 1003.5
20260504024528 6 327 9.7 19.3 0.00 1.73 1.68 69 1003.6
20260504024019 6 331 12.9 19.3 0.00 1.73 1.68 70 1003.5
20260504023514 6 329 12.9 24.1 0.00 1.73 1.68 68 1003.5
20260504023045 6 327 12.9 27.4 0.00 1.73 1.68 69 1003.5
20260504022516 6 306 16.1 27.4 0.00 1.73 1.68 70 1003.4
20260504022017 6 327 16.1 25.7 0.00 1.73 1.68 70 1003.3
20260504021528 6 322 12.9 25.7 0.00 1.73 1.68 66 1003.3
20260504021008 6 334 19.3 24.1 0.00 1.73 1.68 69 1003.2
20260504020517 6 336 16.1 25.7 0.00 1.73 1.68 68 1003.3
20260504020046 6 327 12.9 27.4 0.00 1.73 1.68 68 1003.4
20260504015519 6 317 19.3 27.4 0.00 1.78 1.68 66 1003.3
20260504015017 6 321 17.7 27.4 0.00 1.78 1.68 66 1003.2
20260504014548 6 317 16.1 25.7 0.00 1.78 1.68 67 1003.2
20260504014017 6 323 14.5 25.7 0.00 1.78 1.68 68 1003.1
20260504013516 6 306 16.1 25.7 0.00 1.78 1.68 66 1003.1
20260504013108 6 331 17.7 25.7 0.00 1.78 1.68 66 1003.1
20260504012518 6 345 17.7 32.2 0.00 1.78 1.68 66 1003.1
20260504012008 6 312 16.1 32.2 0.00 1.78 1.68 66 1003.1
20260504011548 6 309 19.3 30.6 0.00 1.78 1.68 67 1003.0
20260504011010 6 336 17.7 30.6 0.00 1.78 1.68 67 1002.9
20260504010516 6 302 16.1 30.6 0.00 1.78 1.68 67 1002.8
20260504010055 6 345 17.7 29.0 0.00 1.78 1.68 67 1002.8
20260504005518 6 341 19.3 29.0 0.00 1.78 1.68 68 1002.7
20260504005018 6 311 19.3 25.7 0.00 1.78 1.68 72 1002.8
20260504004550 6 1 11.3 19.3 0.00 1.78 1.68 76 1002.8
20260504004017 6 36 3.2 20.9 0.00 1.78 1.68 86 1002.8
20260504003517 5 337 9.7 20.9 0.00 1.78 1.68 84 1002.6
20260504003047 5 305 0.0 0.0 0.00 1.78 1.68 94 1002.6
20260504002515 5 305 0.0 0.0 0.00 1.78 1.68 94 1002.6
20260504002015 6 305 0.0 0.0 0.00 1.78 1.68 93 1002.5
20260504001549 6 305 0.0 0.0 0.00 1.78 1.68 93 1002.5
20260504001016 6 305 0.0 4.8 0.00 1.78 1.68 93 1002.2
20260504000518 6 322 1.6 4.8 0.00 1.78 1.68 92 1002.2
20260504000106 6 322 0.0 6.4 0.00 1.78 1.68 91 1002.2
20260503235515 6 322 1.6 6.4 0.00 1.78 1.68 91 1002.1
20260503235018 6 322 1.6 6.4 0.00 1.78 1.68 90 1002.1
20260503234549 6 320 4.8 8.0 0.00 1.78 1.68 91 1001.9
20260503234018 6 319 4.8 8.0 0.00 1.78 1.68 90 1001.7
20260503233516 6 319 4.8 8.0 0.00 1.78 1.68 90 1001.7
20260503233052 7 322 1.6 6.4 0.00 1.78 1.68 89 1001.7
20260503232517 7 308 0.0 6.4 0.00 1.78 1.68 88 1001.8
20260503232017 7 308 3.2 6.4 0.00 1.78 1.68 89 1001.8
20260503231554 7 290 1.6 4.8 0.00 1.78 1.68 89 1001.7
20260503231019 7 306 0.0 4.8 0.00 1.78 1.68 90 1001.6
20260503230519 7 316 0.0 3.2 0.00 1.78 1.68 91 1001.6
20260503230052 7 328 0.0 3.2 0.00 1.78 1.68 91 1001.5
20260503225521 7 328 0.0 6.4 0.00 1.78 1.68 90 1001.5
20260503225017 7 328 0.0 6.4 0.00 1.78 1.68 89 1001.6
20260503224558 6 318 1.6 6.4 0.00 1.78 1.68 88 1001.6
20260503224020 7 267 1.6 8.0 0.00 1.78 1.68 89 1001.6
20260503223511 7 344 3.2 8.0 0.00 1.78 1.68 88 1001.6
20260503223050 7 338 3.2 6.4 0.00 1.78 1.68 88 1001.6
20260503222517 7 2 0.0 8.0 0.00 1.78 1.68 89 1001.6
20260503222015 6 340 3.2 8.0 0.00 1.78 1.68 87 1001.6
20260503221559 6 327 3.2 6.4 0.00 1.78 1.68 89 1001.6
20260503221011 6 340 0.0 3.2 0.00 1.78 1.68 89 1001.6
20260503220516 6 340 0.0 4.8 0.00 1.78 1.68 89 1001.7
20260503220052 6 327 1.6 6.4 0.00 1.78 1.68 89 1001.7
20260503215516 6 343 1.6 8.0 0.00 1.80 1.68 89 1001.7
20260503215019 6 325 1.6 14.5 0.00 1.80 1.68 89 1001.6
20260503214551 6 322 6.4 16.1 0.00 1.80 1.68 87 1001.8
20260503214024 6 351 6.4 16.1 0.00 1.80 1.68 87 1001.9
20260503213518 6 328 8.0 16.1 0.00 1.80 1.68 88 1001.9
20260503213054 6 344 8.0 16.1 0.00 1.80 1.68 88 1002.1